Weather History for Monticello, IA

Change the Weather History Date:

Tuesday, April 1, 2014

  Actual Average Record
Temperature  
Mean Temperature 34 °F -  
Max Temperature 44 °F 52 °F 86 °F (2003)
Min Temperature 24 °F 33 °F 21 °F (2002)
Degree Days  
Heating Degree Days 31    
Moisture  
Dew Point 24 °F    
Average Humidity 65    
Maximum Humidity 81    
Minimum Humidity 49    
Precipitation  
Precipitation 0.00 in - - ()
Sea Level Pressure  
Sea Level Pressure 29.92 in    
Wind  
Wind Speed 18 mph (West)    
Max Wind Speed 28 mph    
Max Gust Speed 37 mph    
Visibility 10 miles    
Events      
Averages and records for this station are not official NWS values.
T = Trace of Precipitation, MM = Missing Value Source: NWS Daily Summary

Daily Weather History Graph

Daily Weather History Graph

Search for Another Location

Airport:

Trip Planner

Search our weather history database for the weather conditions in past years. The results will help you decide how hot, cold, wet, or windy it might be!

Date:

Astronomy

Apr. 01, 2014 Rise Set
Actual Time 6:47 AM CDT 7:30 PM CDT
Civil Twilight 6:18 AM CDT 7:58 PM CDT
Nautical Twilight 5:45 AM CDT 8:32 PM CDT
Astronomical Twilight 5:10 AM CDT 9:07 PM CDT
Moon 7:47 AM CDT (4/1) 9:56 PM CDT (4/1)
Length of Visible Light 13h 39m
Length of Day
12h 43m
Waxing Crescent, 5% of the Moon is Illuminated
Apr 1
Waxing Crescent
Apr 7
First Quarter
Apr 15
Full
Apr 22
Last Quarter
Apr 29
New

Hourly Weather History & Observations

Time (CDT) Temp. Windchill Dew Point Humidity Pressure Visibility Wind Dir Wind Speed Gust Speed Precip Events Conditions
12:15 AM 33.8 °F 23.2 °F 26.6 °F 75% 29.72 in 10.0 mi WSW 17.3 mph 26.5 mph N/A   Clear
12:35 AM 33.8 °F 23.5 °F 24.8 °F 70% 29.73 in 10.0 mi WSW 16.1 mph 26.5 mph N/A   Clear
12:55 AM 32.0 °F 21.2 °F 24.8 °F 75% 29.73 in 10.0 mi WSW 16.1 mph 23.0 mph N/A   Scattered Clouds
1:15 AM 32.0 °F 21.6 °F 24.8 °F 75% 29.73 in 10.0 mi WSW 15.0 mph 21.9 mph N/A   Overcast
1:35 AM 32.0 °F 20.1 °F 24.8 °F 75% 29.73 in 10.0 mi WSW 19.6 mph 25.3 mph N/A   Overcast
1:55 AM 32.0 °F 20.1 °F 24.8 °F 75% 29.74 in 10.0 mi WSW 19.6 mph 29.9 mph N/A   Overcast
2:15 AM 32.0 °F 20.8 °F 23.0 °F 69% 29.75 in 10.0 mi WSW 17.3 mph 29.9 mph N/A   Overcast
2:35 AM 30.2 °F 17.1 °F 21.2 °F 69% 29.74 in 10.0 mi West 21.9 mph 28.8 mph N/A   Overcast
2:55 AM 30.2 °F 15.9 °F 21.2 °F 69% 29.74 in 10.0 mi WSW 26.5 mph 34.5 mph N/A   Overcast
3:15 AM 30.2 °F 17.1 °F 21.2 °F 69% 29.74 in 10.0 mi West 21.9 mph 32.2 mph N/A   Overcast
3:35 AM 28.4 °F 14.4 °F 19.4 °F 69% 29.74 in 10.0 mi WSW 23.0 mph 32.2 mph N/A   Overcast
3:55 AM 28.4 °F 15.1 °F 19.4 °F 69% 29.74 in 10.0 mi West 20.7 mph 33.4 mph N/A   Overcast
4:15 AM 26.6 °F 12.4 °F 17.6 °F 69% 29.74 in 10.0 mi West 21.9 mph 31.1 mph N/A   Overcast
4:35 AM 26.6 °F 14.3 °F 19.4 °F 74% 29.75 in 10.0 mi West 16.1 mph 31.1 mph N/A   Overcast
4:55 AM 24.8 °F 8.4 °F 15.8 °F 69% 29.76 in 10.0 mi West 27.6 mph 34.5 mph N/A   Overcast
5:15 AM 24.8 °F 9.0 °F 15.8 °F 69% 29.77 in 10.0 mi West 25.3 mph 33.4 mph N/A   Overcast
5:35 AM 24.8 °F 10.3 °F 15.8 °F 69% 29.78 in 10.0 mi West 20.7 mph 32.2 mph N/A   Overcast
5:55 AM 24.8 °F 9.0 °F 15.8 °F 69% 29.80 in 10.0 mi West 25.3 mph 32.2 mph N/A   Overcast
6:15 AM 24.8 °F 8.7 °F 15.8 °F 69% 29.81 in 10.0 mi West 26.5 mph 34.5 mph N/A   Overcast
6:35 AM 24.8 °F 8.4 °F 15.8 °F 69% 29.82 in 10.0 mi West 27.6 mph 36.8 mph N/A   Overcast
6:55 AM 24.8 °F 8.4 °F 15.8 °F 69% 29.83 in 10.0 mi West 27.6 mph 35.7 mph N/A   Overcast
7:15 AM 24.8 °F 11.5 °F 15.8 °F 69% 29.84 in 10.0 mi West 17.3 mph 31.1 mph N/A   Overcast
7:35 AM 24.8 °F 10.7 °F 15.8 °F 69% 29.85 in 10.0 mi West 19.6 mph 32.2 mph N/A   Overcast
7:55 AM 24.8 °F 10.0 °F 15.8 °F 69% 29.85 in 10.0 mi West 21.9 mph 31.1 mph N/A   Overcast
8:15 AM 26.6 °F 13.1 °F 15.8 °F 64% 29.86 in 10.0 mi West 19.6 mph 28.8 mph N/A   Overcast
8:35 AM 26.6 °F 13.1 °F 15.8 °F 64% 29.87 in 10.0 mi West 19.6 mph 31.1 mph N/A   Overcast
8:55 AM 26.6 °F 11.7 °F 17.6 °F 69% 29.87 in 10.0 mi West 24.2 mph - N/A   Overcast
9:15 AM 26.6 °F 12.4 °F 17.6 °F 69% 29.88 in 10.0 mi West 21.9 mph 29.9 mph N/A   Overcast
9:35 AM 26.6 °F 13.4 °F 17.6 °F 69% 29.89 in 10.0 mi West 18.4 mph 31.1 mph N/A   Overcast
9:55 AM 26.6 °F 13.1 °F 17.6 °F 69% 29.90 in 10.0 mi West 19.6 mph 29.9 mph N/A   Overcast
10:15 AM 26.6 °F 12.0 °F 17.6 °F 69% 29.90 in 10.0 mi West 23.0 mph 31.1 mph N/A   Overcast
10:35 AM 28.4 °F 15.8 °F 17.6 °F 64% 29.92 in 10.0 mi West 18.4 mph 32.2 mph N/A   Overcast
10:55 AM 28.4 °F 14.4 °F 19.4 °F 69% 29.92 in 10.0 mi West 23.0 mph 32.2 mph N/A   Overcast
11:15 AM 30.2 °F 16.8 °F 19.4 °F 64% 29.93 in 10.0 mi West 23.0 mph 29.9 mph N/A   Mostly Cloudy
11:35 AM 33.8 °F 22.2 °F 19.4 °F 56% 29.93 in 10.0 mi WNW 20.7 mph 28.8 mph N/A   Scattered Clouds
11:55 AM 33.8 °F 21.9 °F 19.4 °F 56% 29.94 in 10.0 mi West 21.9 mph 33.4 mph N/A   Clear
12:15 PM 35.6 °F 24.5 °F 21.2 °F 56% 29.95 in 10.0 mi WNW 20.7 mph 27.6 mph N/A   Clear
12:35 PM 37.4 °F 28.2 °F 21.2 °F 52% 29.95 in 10.0 mi West 16.1 mph 26.5 mph N/A   Clear
12:55 PM 37.4 °F 26.6 °F 23.0 °F 56% 29.96 in 10.0 mi West 21.9 mph - N/A   Clear
1:15 PM 39.2 °F 29.3 °F 23.0 °F 52% 29.97 in 10.0 mi WNW 20.7 mph 27.6 mph N/A   Clear
1:35 PM 41.0 °F 31.4 °F 24.8 °F 53% 29.96 in 10.0 mi WNW 21.9 mph 29.9 mph N/A   Clear
1:55 PM 41.0 °F 31.4 °F 24.8 °F 53% 29.96 in 10.0 mi West 21.9 mph - N/A   Clear
2:15 PM 42.8 °F 34.5 °F 24.8 °F 49% 29.96 in 10.0 mi WNW 18.4 mph 28.8 mph N/A   Clear
2:35 PM 42.8 °F 34.3 °F 26.6 °F 53% 29.97 in 10.0 mi WNW 19.6 mph 25.3 mph N/A   Clear
2:55 PM 44.6 °F 36.9 °F 26.6 °F 49% 29.97 in 10.0 mi WNW 18.4 mph 26.5 mph N/A   Clear
3:15 PM 44.6 °F 36.9 °F 26.6 °F 49% 29.97 in 10.0 mi WNW 18.4 mph 24.2 mph N/A   Clear
3:35 PM 44.6 °F 37.2 °F 26.6 °F 49% 29.98 in 10.0 mi West 17.3 mph 24.2 mph N/A   Clear
3:55 PM 44.6 °F 38.1 °F 28.4 °F 53% 29.98 in 10.0 mi West 13.8 mph 26.5 mph N/A   Clear
4:15 PM 44.6 °F 37.2 °F 28.4 °F 53% 29.99 in 10.0 mi West 17.3 mph 23.0 mph N/A   Clear
4:35 PM 44.6 °F 37.4 °F 28.4 °F 53% 30.00 in 10.0 mi WNW 16.1 mph 21.9 mph N/A   Clear
4:55 PM 44.6 °F 38.1 °F 28.4 °F 53% 30.00 in 10.0 mi West 13.8 mph - N/A   Clear
5:15 PM 42.8 °F 35.8 °F 28.4 °F 57% 30.00 in 10.0 mi West 13.8 mph 20.7 mph N/A   Clear
5:35 PM 42.8 °F 35.8 °F 28.4 °F 57% 30.01 in 10.0 mi West 13.8 mph - N/A   Clear
5:55 PM 42.8 °F 35.8 °F 30.2 °F 61% 30.01 in 10.0 mi West 13.8 mph - N/A   Partly Cloudy
6:15 PM 42.8 °F 36.6 °F 30.2 °F 61% 30.03 in 10.0 mi West 11.5 mph - N/A   Mostly Cloudy
6:35 PM 42.8 °F 37.0 °F 30.2 °F 61% 30.03 in 10.0 mi West 10.4 mph - N/A   Scattered Clouds
6:55 PM 41.0 °F 35.2 °F 30.2 °F 65% 30.03 in 10.0 mi WNW 9.2 mph - N/A   Scattered Clouds
7:15 PM 41.0 °F 35.8 °F 30.2 °F 65% 30.03 in 10.0 mi West 8.1 mph - N/A   Mostly Cloudy
7:35 PM 41.0 °F 34.3 °F 30.2 °F 65% 30.02 in 10.0 mi NW 11.5 mph - N/A   Overcast
7:55 PM 41.0 °F 35.8 °F 30.2 °F 65% 30.04 in 10.0 mi West 8.1 mph - N/A   Overcast
8:15 PM 41.0 °F 35.2 °F 32.0 °F 70% 30.05 in 10.0 mi West 9.2 mph - N/A   Overcast
8:35 PM 39.2 °F 34.2 °F 32.0 °F 75% 30.07 in 10.0 mi West 6.9 mph - N/A   Overcast
8:55 PM 39.2 °F 34.2 °F 32.0 °F 75% 30.08 in 10.0 mi West 6.9 mph - N/A   Mostly Cloudy
9:15 PM 39.2 °F 35.9 °F 32.0 °F 75% 30.08 in 10.0 mi West 4.6 mph - N/A   Overcast
9:35 PM 39.2 °F 35.9 °F 32.0 °F 75% 30.09 in 10.0 mi West 4.6 mph - N/A   Overcast
9:55 PM 39.2 °F 35.0 °F 32.0 °F 75% 30.09 in 10.0 mi WNW 5.8 mph - N/A   Overcast
10:15 PM 39.2 °F 33.0 °F 32.0 °F 75% 30.08 in 10.0 mi NW 9.2 mph - N/A   Overcast
10:35 PM 39.2 °F 33.0 °F 32.0 °F 75% 30.08 in 10.0 mi NW 9.2 mph - N/A   Overcast
10:55 PM 39.2 °F 33.0 °F 32.0 °F 75% 30.08 in 10.0 mi NNW 9.2 mph - N/A   Overcast
11:15 PM 39.2 °F 33.0 °F 32.0 °F 75% 30.07 in 10.0 mi NNW 9.2 mph - N/A   Overcast
11:35 PM 39.2 °F 33.0 °F 32.0 °F 75% 30.08 in 10.0 mi NNW 9.2 mph - N/A   Overcast
11:55 PM 37.4 °F 32.8 °F 32.0 °F 81% 30.09 in 10.0 mi North 5.8 mph - N/A   Mostly Cloudy